Station Historical Data
Daily Summary for July 31, 2017 Units:  English    Metric   Both
Next Day »
Daily Weekly Monthly Yearly Custom
  High: Low: Average:
Temperature: 91.4 °F 71.4 °F 79.8 °F
Dew Point: 60.8 °F 50.4 °F 55 °F
Humidity: 63% 28% 43%
Wind Speed: 11.0mph 0.0mph 1.5mph
Wind Gust: 14.0mph - -
Wind- - SSE
Pressure: 30.00 in 29.90 in -
Precipitation: 0.00 in    
Historical Graphs
 
 
Tabular Data for July 31, 2017
Time Temperature Dew Point Pressure Wind Wind Speed Wind Gust Humidity Rainfall Rate (Hourly) solar Conditions
00:03 74.7 °F 50.7 °F 30.00 in ESE 5.0 mph 11.0 mph 43% 0.00 in 0.00 W/m2
00:08 74.6 °F 50.7 °F 30.00 in ESE 6.0 mph 8.0 mph 43% 0.00 in 0.00 W/m2
00:09 74.6 °F 50.7 °F 30.00 in ESE 5.0 mph 8.0 mph 43% 0.00 in 0.00 W/m2
00:14 74.5 °F 50.6 °F 30.00 in ESE 8.0 mph 9.0 mph 43% 0.00 in 0.00 W/m2
00:19 74.5 °F 50.6 °F 29.99 in ESE 4.0 mph 8.0 mph 43% 0.00 in 0.00 W/m2
00:24 74.4 °F 51.1 °F 29.99 in ESE 2.0 mph 8.0 mph 44% 0.00 in 0.00 W/m2
00:29 74.4 °F 51.1 °F 29.99 in ESE 5.0 mph 8.0 mph 44% 0.00 in 0.00 W/m2
00:34 74.4 °F 51.1 °F 29.99 in ESE 4.0 mph 9.0 mph 44% 0.00 in 0.00 W/m2
00:39 74.4 °F 51.1 °F 29.99 in ESE 7.0 mph 11.0 mph 44% 0.00 in 0.00 W/m2
00:44 74.3 °F 51.0 °F 29.99 in Calm   12.0 mph 44% 0.00 in 0.00 W/m2
00:49 74.3 °F 51.0 °F 29.99 in ESE 4.0 mph 11.0 mph 44% 0.00 in 0.00 W/m2
00:54 74.3 °F 50.4 °F 29.99 in ESE 6.0 mph 8.0 mph 43% 0.00 in 0.00 W/m2
00:59 74.3 °F 51.0 °F 29.99 in ESE 4.0 mph 9.0 mph 44% 0.00 in 0.00 W/m2
01:04 74.2 °F 50.9 °F 29.99 in East 6.0 mph 13.0 mph 44% 0.00 in 0.00 W/m2
01:09 74.2 °F 50.9 °F 29.99 in ESE 4.0 mph 11.0 mph 44% 0.00 in 0.00 W/m2
01:14 74.2 °F 50.9 °F 29.98 in ESE 7.0 mph 11.0 mph 44% 0.00 in 0.00 W/m2
01:19 74.2 °F 50.9 °F 29.98 in East 4.0 mph 11.0 mph 44% 0.00 in 0.00 W/m2
01:24 74.1 °F 51.4 °F 29.98 in Calm   11.0 mph 45% 0.00 in 0.00 W/m2
01:29 74.1 °F 51.4 °F 29.98 in East 7.0 mph 8.0 mph 45% 0.00 in 0.00 W/m2
01:34 74.0 °F 51.3 °F 29.98 in East 4.0 mph 9.0 mph 45% 0.00 in 0.00 W/m2
01:39 73.9 °F 51.2 °F 29.98 in East 1.0 mph 8.0 mph 45% 0.00 in 0.00 W/m2
01:44 73.9 °F 51.2 °F 29.98 in East 1.0 mph 7.0 mph 45% 0.00 in 0.00 W/m2
01:49 73.8 °F 51.2 °F 29.98 in East 5.0 mph 8.0 mph 45% 0.00 in 0.00 W/m2
01:54 73.7 °F 51.7 °F 29.98 in East 6.0 mph 7.0 mph 46% 0.00 in 0.00 W/m2
01:59 73.6 °F 51.6 °F 29.98 in East 1.0 mph 9.0 mph 46% 0.00 in 0.00 W/m2
02:04 73.5 °F 51.5 °F 29.98 in East 1.0 mph 12.0 mph 46% 0.00 in 0.00 W/m2
02:09 73.4 °F 51.4 °F 29.98 in East 5.0 mph 9.0 mph 46% 0.00 in 0.00 W/m2
02:14 73.3 °F 51.3 °F 29.98 in East 5.0 mph 8.0 mph 46% 0.00 in 0.00 W/m2
02:19 73.3 °F 51.3 °F 29.97 in East 6.0 mph 7.0 mph 46% 0.00 in 0.00 W/m2
02:24 73.3 °F 51.3 °F 29.98 in East 1.0 mph 6.0 mph 46% 0.00 in 0.00 W/m2
02:29 73.3 °F 51.9 °F 29.98 in East 1.0 mph 8.0 mph 47% 0.00 in 0.00 W/m2
02:34 73.2 °F 51.8 °F 29.98 in East 2.0 mph 7.0 mph 47% 0.00 in 0.00 W/m2
02:39 73.2 °F 51.2 °F 29.97 in Calm   5.0 mph 46% 0.00 in 0.00 W/m2
02:44 73.2 °F 51.2 °F 29.97 in East 4.0 mph 6.0 mph 46% 0.00 in 0.00 W/m2
02:49 73.2 °F 51.8 °F 29.97 in East 5.0 mph 7.0 mph 47% 0.00 in 0.00 W/m2
02:54 73.1 °F 51.7 °F 29.97 in East 6.0 mph 7.0 mph 47% 0.00 in 0.00 W/m2
02:59 73.1 °F 51.7 °F 29.97 in East 5.0 mph 6.0 mph 47% 0.00 in 0.00 W/m2
03:04 73.1 °F 51.7 °F 29.97 in East 4.0 mph 5.0 mph 47% 0.00 in 0.00 W/m2
03:09 73.0 °F 51.6 °F 29.97 in East 4.0 mph 5.0 mph 47% 0.00 in 0.00 W/m2
03:14 72.9 °F 51.5 °F 29.97 in East 4.0 mph 5.0 mph 47% 0.00 in 0.00 W/m2
03:19 72.8 °F 51.4 °F 29.97 in East 4.0 mph 5.0 mph 47% 0.00 in 0.00 W/m2
03:24 72.8 °F 51.4 °F 29.98 in East 4.0 mph 6.0 mph 47% 0.00 in 0.00 W/m2
03:29 72.7 °F 51.9 °F 29.98 in East 2.0 mph 7.0 mph 48% 0.00 in 0.00 W/m2
03:34 72.6 °F 51.8 °F 29.98 in East 4.0 mph 7.0 mph 48% 0.00 in 0.00 W/m2
03:39 72.5 °F 51.7 °F 29.98 in East 1.0 mph 5.0 mph 48% 0.00 in 0.00 W/m2
03:44 72.5 °F 51.7 °F 29.98 in Calm   1.0 mph 48% 0.00 in 0.00 W/m2
03:49 72.4 °F 51.6 °F 29.97 in East 5.0 mph 6.0 mph 48% 0.00 in 0.00 W/m2
03:55 72.3 °F 51.5 °F 29.97 in East 4.0 mph 5.0 mph 48% 0.00 in 0.00 W/m2
04:00 72.2 °F 51.4 °F 29.97 in East 4.0 mph 6.0 mph 48% 0.00 in 0.00 W/m2
04:05 72.1 °F 51.3 °F 29.97 in East 4.0 mph 5.0 mph 48% 0.00 in 0.00 W/m2
04:10 72.0 °F 51.3 °F 29.97 in Calm   1.0 mph 48% 0.00 in 0.00 W/m2
04:15 71.9 °F 51.2 °F 29.97 in Calm   1.0 mph 48% 0.00 in 0.00 W/m2
04:20 71.8 °F 51.6 °F 29.97 in Calm   1.0 mph 49% 0.00 in 0.00 W/m2
04:25 71.8 °F 51.6 °F 29.97 in Calm   1.0 mph 49% 0.00 in 0.00 W/m2
04:30 71.7 °F 51.5 °F 29.97 in East 4.0 mph 8.0 mph 49% 0.00 in 0.00 W/m2
04:35 71.7 °F 51.5 °F 29.97 in East 6.0 mph 7.0 mph 49% 0.00 in 0.00 W/m2
04:40 71.6 °F 51.5 °F 29.97 in East 2.0 mph 7.0 mph 49% 0.00 in 0.00 W/m2
04:45 71.6 °F 51.5 °F 29.97 in East 2.0 mph 9.0 mph 49% 0.00 in 0.00 W/m2
04:50 71.6 °F 51.5 °F 29.96 in East 4.0 mph 6.0 mph 49% 0.00 in 0.00 W/m2
04:55 71.6 °F 51.5 °F 29.96 in East 1.0 mph 8.0 mph 49% 0.00 in 0.00 W/m2
05:00 71.6 °F 51.5 °F 29.97 in East 4.0 mph 6.0 mph 49% 0.00 in 0.00 W/m2
05:05 71.6 °F 51.5 °F 29.97 in East 5.0 mph 7.0 mph 49% 0.00 in 0.00 W/m2
05:10 71.6 °F 51.5 °F 29.97 in East 4.0 mph 6.0 mph 49% 0.00 in 0.00 W/m2
05:15 71.6 °F 51.5 °F 29.97 in East 5.0 mph 9.0 mph 49% 0.00 in 0.00 W/m2
05:20 71.6 °F 52.0 °F 29.97 in ESE 5.0 mph 11.0 mph 50% 0.00 in 0.00 W/m2
05:25 71.6 °F 52.0 °F 29.97 in ESE 1.0 mph 8.0 mph 50% 0.00 in 0.00 W/m2
05:30 71.5 °F 51.9 °F 29.97 in East 4.0 mph 14.0 mph 50% 0.00 in 0.00 W/m2
05:35 71.5 °F 51.9 °F 29.97 in East 1.0 mph 14.0 mph 50% 0.00 in 0.00 W/m2
05:40 71.5 °F 51.9 °F 29.97 in East 5.0 mph 12.0 mph 50% 0.00 in 0.00 W/m2
05:45 71.5 °F 51.9 °F 29.97 in East 2.0 mph 9.0 mph 50% 0.00 in 0.00 W/m2
05:50 71.5 °F 51.9 °F 29.97 in East 5.0 mph 7.0 mph 50% 0.00 in 0.00 W/m2
05:52 71.5 °F 51.9 °F 29.97 in East 2.0 mph 8.0 mph 50% 0.00 in 0.00 W/m2
05:57 71.5 °F 51.9 °F 29.97 in East 5.0 mph 7.0 mph 50% 0.00 in 0.00 W/m2
06:02 71.5 °F 52.4 °F 29.97 in East 1.0 mph 8.0 mph 51% 0.00 in 5.00 W/m2
06:07 71.5 °F 52.4 °F 29.97 in East 6.0 mph 6.0 mph 51% 0.00 in 7.00 W/m2
06:12 71.4 °F 52.3 °F 29.97 in East 5.0 mph 6.0 mph 51% 0.00 in 11.00 W/m2
06:17 71.4 °F 52.3 °F 29.97 in ESE 11.0 mph 11.0 mph 51% 0.00 in 14.00 W/m2
06:22 71.4 °F 52.3 °F 29.98 in ESE 2.0 mph 9.0 mph 51% 0.00 in 18.00 W/m2
06:27 71.4 °F 52.3 °F 29.98 in ESE 4.0 mph 9.0 mph 51% 0.00 in 21.00 W/m2
06:32 71.4 °F 52.3 °F 29.98 in ESE 1.0 mph 7.0 mph 51% 0.00 in 26.00 W/m2
06:37 71.4 °F 52.3 °F 29.98 in ESE 5.0 mph 8.0 mph 51% 0.00 in 33.00 W/m2
06:42 71.4 °F 52.3 °F 29.98 in ESE 1.0 mph 7.0 mph 51% 0.00 in 42.00 W/m2
06:47 71.4 °F 52.9 °F 29.98 in East 5.0 mph 11.0 mph 52% 0.00 in 51.00 W/m2
06:52 71.4 °F 52.9 °F 29.98 in ESE 5.0 mph 8.0 mph 52% 0.00 in 62.00 W/m2
06:57 71.4 °F 52.9 °F 29.98 in ESE 5.0 mph 9.0 mph 52% 0.00 in 74.00 W/m2
07:02 71.4 °F 53.4 °F 29.98 in Calm   9.0 mph 53% 0.00 in 88.00 W/m2
07:07 71.4 °F 53.4 °F 29.98 in Calm   6.0 mph 53% 0.00 in 100.00 W/m2
07:12 71.4 °F 53.4 °F 29.98 in ESE 2.0 mph 6.0 mph 53% 0.00 in 116.00 W/m2
07:17 71.4 °F 53.9 °F 29.98 in Calm   7.0 mph 54% 0.00 in 134.00 W/m2
07:22 71.5 °F 54.5 °F 29.98 in East 4.0 mph 8.0 mph 55% 0.00 in 153.00 W/m2
07:27 71.5 °F 54.5 °F 29.99 in Calm   8.0 mph 55% 0.00 in 171.00 W/m2
07:32 71.5 °F 54.5 °F 29.98 in ESE 5.0 mph 8.0 mph 55% 0.00 in 190.00 W/m2
07:37 71.5 °F 54.5 °F 29.98 in Calm   6.0 mph 55% 0.00 in 211.00 W/m2
07:42 71.5 °F 55.0 °F 29.99 in Calm   2.0 mph 56% 0.00 in 225.00 W/m2
07:47 71.6 °F 55.1 °F 29.99 in Calm   4.0 mph 56% 0.00 in 243.00 W/m2
07:52 71.6 °F 55.6 °F 29.99 in ESE 2.0 mph 11.0 mph 57% 0.00 in 262.00 W/m2
07:57 71.7 °F 56.2 °F 29.99 in Calm   8.0 mph 58% 0.00 in 278.00 W/m2
08:02 71.7 °F 56.2 °F 29.99 in ESE 1.0 mph 5.0 mph 58% 0.00 in 295.00 W/m2
08:07 71.8 °F 56.2 °F 29.99 in ESE 6.0 mph 6.0 mph 58% 0.00 in 309.00 W/m2
08:12 71.9 °F 56.3 °F 29.99 in ESE 6.0 mph 6.0 mph 58% 0.00 in 327.00 W/m2
08:14 71.9 °F 56.3 °F 29.99 in ESE 2.0 mph 8.0 mph 58% 0.00 in 332.00 W/m2
08:19 72.1 °F 56.5 °F 29.99 in Calm   7.0 mph 58% 0.00 in 346.00 W/m2
08:24 72.2 °F 56.6 °F 29.99 in Calm   4.0 mph 58% 0.00 in 366.00 W/m2
08:29 72.5 °F 57.4 °F 30.00 in Calm   2.0 mph 59% 0.00 in 381.00 W/m2
08:30 72.4 °F 57.3 °F 29.99 in Calm   2.0 mph 59% 0.00 in 381.00 W/m2
08:35 72.6 °F 57.5 °F 29.99 in Calm     59% 0.00 in 396.00 W/m2
08:40 72.7 °F 58.0 °F 29.99 in Calm     60% 0.00 in 413.00 W/m2
08:45 72.9 °F 58.2 °F 30.00 in Calm   1.0 mph 60% 0.00 in 429.00 W/m2
08:50 73.2 °F 59.0 °F 30.00 in Calm   1.0 mph 61% 0.00 in 445.00 W/m2
08:55 73.6 °F 59.8 °F 30.00 in Calm     62% 0.00 in 461.00 W/m2
09:00 73.9 °F 60.1 °F 30.00 in Calm     62% 0.00 in 475.00 W/m2
09:05 74.2 °F 60.8 °F 30.00 in Calm     63% 0.00 in 489.00 W/m2
09:10 74.6 °F 60.3 °F 30.00 in Calm     61% 0.00 in 504.00 W/m2
09:15 74.8 °F 59.5 °F 30.00 in Calm     59% 0.00 in 520.00 W/m2
09:20 75.0 °F 52.2 °F 30.00 in Calm     45% 0.00 in 534.00 W/m2
09:25 75.4 °F 51.4 °F 30.00 in Calm     43% 0.00 in 548.00 W/m2
09:30 76.0 °F 51.9 °F 30.00 in Calm     43% 0.00 in 563.00 W/m2
09:35 76.4 °F 51.6 °F 30.00 in Calm     42% 0.00 in 577.00 W/m2
09:40 76.7 °F 51.2 °F 30.00 in Calm     41% 0.00 in 592.00 W/m2
09:45 77.1 °F 52.3 °F 30.00 in Calm     42% 0.00 in 603.00 W/m2
09:50 77.7 °F 53.5 °F 30.00 in Calm     43% 0.00 in 615.00 W/m2
09:55 78.1 °F 53.2 °F 30.00 in Calm     42% 0.00 in 631.00 W/m2
10:00 78.6 °F 55.5 °F 30.00 in Calm     45% 0.00 in 645.00 W/m2
10:05 79.1 °F 53.4 °F 30.00 in Calm     41% 0.00 in 656.00 W/m2
10:10 79.7 °F 53.9 °F 30.00 in Calm     41% 0.00 in 668.00 W/m2
10:15 80.1 °F 53.6 °F 30.00 in ESE 1.0 mph 1.0 mph 40% 0.00 in 679.00 W/m2
10:20 80.3 °F 54.5 °F 30.00 in Calm     41% 0.00 in 691.00 W/m2
10:25 80.6 °F 56.1 °F 30.00 in Calm   1.0 mph 43% 0.00 in 701.00 W/m2
10:30 81.0 °F 55.1 °F 30.00 in ESE 2.0 mph 4.0 mph 41% 0.00 in 712.00 W/m2
10:32 81.1 °F 55.9 °F 30.00 in Calm   1.0 mph 42% 0.00 in 715.00 W/m2
10:37 81.3 °F 56.0 °F 30.00 in Calm   1.0 mph 42% 0.00 in 726.00 W/m2
10:42 81.5 °F 55.5 °F 30.00 in Calm   1.0 mph 41% 0.00 in 735.00 W/m2
10:47 81.9 °F 57.2 °F 30.00 in Calm     43% 0.00 in 747.00 W/m2
10:52 82.2 °F 56.8 °F 30.00 in Calm   1.0 mph 42% 0.00 in 756.00 W/m2
10:57 82.5 °F 56.5 °F 30.00 in Calm     41% 0.00 in 766.00 W/m2
11:02 82.9 °F 56.8 °F 29.99 in Calm   1.0 mph 41% 0.00 in 772.00 W/m2
11:07 83.2 °F 55.7 °F 29.99 in Calm   1.0 mph 39% 0.00 in 780.00 W/m2
11:12 83.4 °F 56.6 °F 29.99 in Calm     40% 0.00 in 793.00 W/m2
11:17 83.7 °F 56.8 °F 29.99 in Calm   2.0 mph 40% 0.00 in 802.00 W/m2
11:22 83.9 °F 57.0 °F 29.99 in East 2.0 mph 2.0 mph 40% 0.00 in 807.00 W/m2
11:27 84.1 °F 57.2 °F 29.99 in Calm   4.0 mph 40% 0.00 in 816.00 W/m2
11:32 84.3 °F 56.7 °F 29.99 in Calm   1.0 mph 39% 0.00 in 823.00 W/m2
11:37 84.5 °F 56.8 °F 29.99 in Calm   1.0 mph 39% 0.00 in 831.00 W/m2
11:39 84.6 °F 56.2 °F 29.99 in Calm   1.0 mph 38% 0.00 in 833.00 W/m2
11:44 84.8 °F 55.7 °F 29.99 in NNE 1.0 mph 5.0 mph 37% 0.00 in 837.00 W/m2
11:49 85.0 °F 55.8 °F 29.99 in Calm     37% 0.00 in 842.00 W/m2
11:54 85.3 °F 54.6 °F 29.99 in Calm   2.0 mph 35% 0.00 in 851.00 W/m2
11:59 85.5 °F 54.8 °F 29.99 in Calm     35% 0.00 in 853.00 W/m2
12:04 85.9 °F 55.1 °F 29.98 in Calm   3.0 mph 35% 0.00 in 861.00 W/m2
12:09 86.3 °F 54.7 °F 29.99 in Calm   3.0 mph 34% 0.00 in 865.00 W/m2
12:14 86.5 °F 55.6 °F 29.98 in Calm   3.0 mph 35% 0.00 in 872.00 W/m2
12:19 86.8 °F 55.1 °F 29.98 in Calm   2.0 mph 34% 0.00 in 875.00 W/m2
12:24 87.0 °F 53.6 °F 29.98 in Calm   4.0 mph 32% 0.00 in 881.00 W/m2
12:29 87.3 °F 54.7 °F 29.98 in Calm   1.0 mph 33% 0.00 in 886.00 W/m2
12:34 87.7 °F 52.5 °F 29.98 in Calm   2.0 mph 30% 0.00 in 886.00 W/m2
12:39 88.1 °F 52.8 °F 29.98 in Calm     30% 0.00 in 888.00 W/m2
12:44 88.5 °F 53.1 °F 29.98 in Calm   1.0 mph 30% 0.00 in 891.00 W/m2
12:50 88.6 °F 53.2 °F 29.98 in NNW 2.0 mph 4.0 mph 30% 0.00 in 891.00 W/m2
12:55 88.9 °F 51.6 °F 29.97 in Calm     28% 0.00 in 895.00 W/m2
13:00 89.0 °F 52.7 °F 29.97 in Calm   4.0 mph 29% 0.00 in 893.00 W/m2
13:05 89.2 °F 52.8 °F 29.97 in NNW 3.0 mph 5.0 mph 29% 0.00 in 895.00 W/m2
13:10 89.3 °F 53.8 °F 29.97 in Calm   2.0 mph 30% 0.00 in 895.00 W/m2
13:15 89.7 °F 54.2 °F 29.97 in Calm   1.0 mph 30% 0.00 in 893.00 W/m2
13:20 90.1 °F 54.5 °F 29.96 in Calm   3.0 mph 30% 0.00 in 889.00 W/m2
13:25 90.6 °F 55.8 °F 29.96 in NW 1.0 mph 6.0 mph 31% 0.00 in 889.00 W/m2
13:30 90.9 °F 57.0 °F 29.96 in Calm   7.0 mph 32% 0.00 in 888.00 W/m2
13:35 91.3 °F 56.5 °F 29.96 in Calm   7.0 mph 31% 0.00 in 886.00 W/m2
13:40 91.3 °F 57.3 °F 29.96 in West 5.0 mph 5.0 mph 32% 0.00 in 879.00 W/m2
13:45 91.3 °F 59.0 °F 29.96 in West 2.0 mph 6.0 mph 34% 0.00 in 877.00 W/m2
13:50 91.1 °F 58.8 °F 29.96 in NW 1.0 mph 9.0 mph 34% 0.00 in 875.00 W/m2
13:55 90.8 °F 59.4 °F 29.95 in NW 2.0 mph 5.0 mph 35% 0.00 in 870.00 W/m2
14:00 90.8 °F 58.6 °F 29.95 in West 4.0 mph 13.0 mph 34% 0.00 in 867.00 W/m2
14:05 91.2 °F 58.9 °F 29.95 in Calm   6.0 mph 34% 0.00 in 861.00 W/m2
14:10 91.4 °F 59.1 °F 29.95 in Calm   7.0 mph 34% 0.00 in 861.00 W/m2
14:15 91.3 °F 58.2 °F 29.95 in Calm   6.0 mph 33% 0.00 in 854.00 W/m2
14:20 91.3 °F 58.2 °F 29.95 in West 5.0 mph 9.0 mph 33% 0.00 in 849.00 W/m2
14:25 91.1 °F 58.8 °F 29.95 in Calm   4.0 mph 34% 0.00 in 842.00 W/m2
14:30 90.7 °F 57.7 °F 29.95 in Calm   9.0 mph 33% 0.00 in 835.00 W/m2
14:35 90.3 °F 57.3 °F 29.95 in Calm   8.0 mph 33% 0.00 in 830.00 W/m2
14:40 90.2 °F 57.2 °F 29.95 in Calm   2.0 mph 33% 0.00 in 823.00 W/m2
14:45 90.2 °F 57.2 °F 29.94 in West 1.0 mph 9.0 mph 33% 0.00 in 817.00 W/m2
14:50 90.4 °F 57.4 °F 29.94 in Calm   6.0 mph 33% 0.00 in 812.00 W/m2
14:51 90.5 °F 58.3 °F 29.94 in Calm     34% 0.00 in 809.00 W/m2
14:56 90.5 °F 57.5 °F 29.94 in West 6.0 mph 6.0 mph 33% 0.00 in 798.00 W/m2
15:01 90.6 °F 58.4 °F 29.94 in West 3.0 mph 4.0 mph 34% 0.00 in 793.00 W/m2
15:06 90.5 °F 56.6 °F 29.94 in Calm   2.0 mph 32% 0.00 in 784.00 W/m2
15:11 90.6 °F 57.6 °F 29.94 in WNW 1.0 mph 3.0 mph 33% 0.00 in 772.00 W/m2
15:17 90.6 °F 56.7 °F 29.93 in WNW 5.0 mph 7.0 mph 32% 0.00 in 765.00 W/m2
15:22 90.5 °F 56.6 °F 29.94 in WNW 4.0 mph 5.0 mph 32% 0.00 in 756.00 W/m2
15:27 90.6 °F 55.8 °F 29.93 in West 6.0 mph 7.0 mph 31% 0.00 in 745.00 W/m2
15:32 90.7 °F 55.0 °F 29.93 in WSW 1.0 mph 3.0 mph 30% 0.00 in 735.00 W/m2
15:37 90.8 °F 55.1 °F 29.93 in Calm   5.0 mph 30% 0.00 in 724.00 W/m2
15:42 90.8 °F 56.9 °F 29.93 in West 3.0 mph 7.0 mph 32% 0.00 in 714.00 W/m2
15:47 90.8 °F 56.9 °F 29.93 in West 2.0 mph 3.0 mph 32% 0.00 in 700.00 W/m2
15:52 90.7 °F 55.9 °F 29.93 in Calm   1.0 mph 31% 0.00 in 694.00 W/m2
15:57 90.7 °F 55.0 °F 29.93 in Calm   1.0 mph 30% 0.00 in 682.00 W/m2
16:02 90.8 °F 56.0 °F 29.93 in West 3.0 mph 4.0 mph 31% 0.00 in 668.00 W/m2
16:07 90.8 °F 57.8 °F 29.93 in Calm   2.0 mph 33% 0.00 in 656.00 W/m2
16:12 90.8 °F 57.8 °F 29.92 in Calm   1.0 mph 33% 0.00 in 645.00 W/m2
16:17 90.7 °F 57.7 °F 29.92 in West 1.0 mph 7.0 mph 33% 0.00 in 633.00 W/m2
16:22 90.7 °F 57.7 °F 29.92 in West 3.0 mph 3.0 mph 33% 0.00 in 613.00 W/m2
16:27 90.6 °F 57.6 °F 29.92 in Calm   1.0 mph 33% 0.00 in 603.00 W/m2
16:32 90.4 °F 57.4 °F 29.92 in West 6.0 mph 7.0 mph 33% 0.00 in 589.00 W/m2
16:37 90.3 °F 57.3 °F 29.92 in West 1.0 mph 1.0 mph 33% 0.00 in 577.00 W/m2
16:42 90.2 °F 57.2 °F 29.92 in WSW 3.0 mph 5.0 mph 33% 0.00 in 561.00 W/m2
16:47 90.2 °F 57.2 °F 29.92 in West 8.0 mph 11.0 mph 33% 0.00 in 543.00 W/m2
16:52 90.3 °F 56.5 °F 29.92 in WSW 1.0 mph 5.0 mph 32% 0.00 in 526.00 W/m2
16:57 90.4 °F 56.6 °F 29.92 in Calm   8.0 mph 32% 0.00 in 515.00 W/m2
17:02 90.6 °F 57.6 °F 29.92 in Calm   1.0 mph 33% 0.00 in 499.00 W/m2
17:07 90.5 °F 57.5 °F 29.92 in Calm     33% 0.00 in 485.00 W/m2
17:12 90.3 °F 56.5 °F 29.92 in Calm   4.0 mph 32% 0.00 in 473.00 W/m2
17:17 90.1 °F 57.2 °F 29.92 in Calm   4.0 mph 33% 0.00 in 461.00 W/m2
17:22 89.9 °F 58.6 °F 29.92 in Calm   1.0 mph 35% 0.00 in 445.00 W/m2
17:27 89.7 °F 57.6 °F 29.91 in West 2.0 mph 6.0 mph 34% 0.00 in 431.00 W/m2
17:32 89.7 °F 58.4 °F 29.91 in Calm   1.0 mph 35% 0.00 in 413.00 W/m2
17:37 89.6 °F 59.1 °F 29.91 in Calm   1.0 mph 36% 0.00 in 396.00 W/m2
17:42 89.4 °F 59.0 °F 29.91 in West 3.0 mph 5.0 mph 36% 0.00 in 376.00 W/m2
17:47 89.3 °F 58.1 °F 29.91 in Calm   4.0 mph 35% 0.00 in 362.00 W/m2
17:52 89.0 °F 59.4 °F 29.91 in Calm   4.0 mph 37% 0.00 in 348.00 W/m2
17:57 88.8 °F 58.4 °F 29.91 in West 2.0 mph 3.0 mph 36% 0.00 in 332.00 W/m2
18:02 88.6 °F 59.0 °F 29.91 in Calm   1.0 mph 37% 0.00 in 316.00 W/m2
18:07 88.5 °F 59.7 °F 29.91 in Calm   1.0 mph 38% 0.00 in 304.00 W/m2
18:12 88.3 °F 58.8 °F 29.91 in Calm   3.0 mph 37% 0.00 in 285.00 W/m2
18:17 87.9 °F 58.4 °F 29.91 in Calm   2.0 mph 37% 0.00 in 271.00 W/m2
18:22 87.8 °F 58.3 °F 29.91 in Calm   3.0 mph 37% 0.00 in 255.00 W/m2
18:27 87.6 °F 59.6 °F 29.91 in Calm   3.0 mph 39% 0.00 in 239.00 W/m2
18:32 87.5 °F 59.5 °F 29.90 in West 1.0 mph 1.0 mph 39% 0.00 in 221.00 W/m2
18:37 87.3 °F 59.3 °F 29.91 in West 1.0 mph 1.0 mph 39% 0.00 in 207.00 W/m2
18:42 87.1 °F 60.6 °F 29.91 in Calm   5.0 mph 41% 0.00 in 192.00 W/m2
18:47 86.8 °F 60.3 °F 29.91 in West 1.0 mph 4.0 mph 41% 0.00 in 181.00 W/m2
18:57 86.3 °F 60.5 °F 29.91 in Calm   1.0 mph 42% 0.00 in 151.00 W/m2
19:02 86.0 °F 59.6 °F 29.91 in Calm   2.0 mph 41% 0.00 in 135.00 W/m2
19:07 85.6 °F 60.6 °F 29.91 in Calm   1.0 mph 43% 0.00 in 100.00 W/m2
19:12 85.2 °F 60.8 °F 29.92 in Calm   1.0 mph 44% 0.00 in 70.00 W/m2
19:17 84.8 °F 60.5 °F 29.91 in Calm   1.0 mph 44% 0.00 in 77.00 W/m2
19:22 84.3 °F 60.7 °F 29.91 in Calm   1.0 mph 45% 0.00 in 74.00 W/m2
19:27 84.0 °F 59.1 °F 29.92 in Calm   2.0 mph 43% 0.00 in 77.00 W/m2
19:32 83.8 °F 60.2 °F 29.92 in Calm   1.0 mph 45% 0.00 in 67.00 W/m2
19:33 83.8 °F 60.2 °F 29.92 in Calm   1.0 mph 45% 0.00 in 67.00 W/m2
19:38 83.5 °F 60.6 °F 29.92 in West 1.0 mph 1.0 mph 46% 0.00 in 60.00 W/m2
19:43 82.9 °F 60.0 °F 29.92 in Calm   1.0 mph 46% 0.00 in 54.00 W/m2
19:48 82.6 °F 59.8 °F 29.92 in Calm   1.0 mph 46% 0.00 in 46.00 W/m2
19:53 82.2 °F 59.4 °F 29.92 in Calm     46% 0.00 in 35.00 W/m2
19:58 81.8 °F 59.0 °F 29.92 in Calm     46% 0.00 in 25.00 W/m2
20:03 81.5 °F 58.8 °F 29.92 in Calm   1.0 mph 46% 0.00 in 18.00 W/m2
20:08 81.4 °F 58.7 °F 29.92 in Calm   1.0 mph 46% 0.00 in 12.00 W/m2
20:13 81.1 °F 58.4 °F 29.92 in Calm     46% 0.00 in 9.00 W/m2
20:18 80.9 °F 57.6 °F 29.92 in Calm   1.0 mph 45% 0.00 in 5.00 W/m2
20:23 80.8 °F 57.5 °F 29.92 in Calm   1.0 mph 45% 0.00 in 0.00 W/m2
20:28 80.5 °F 57.2 °F 29.92 in Calm     45% 0.00 in 0.00 W/m2
20:33 80.1 °F 56.9 °F 29.92 in Calm   1.0 mph 45% 0.00 in 0.00 W/m2
20:38 79.8 °F 56.0 °F 29.92 in Calm     44% 0.00 in 0.00 W/m2
20:39 79.7 °F 55.9 °F 29.92 in Calm   1.0 mph 44% 0.00 in 0.00 W/m2
20:44 79.4 °F 56.2 °F 29.92 in Calm     45% 0.00 in 0.00 W/m2
20:49 79.3 °F 55.5 °F 29.92 in Calm   1.0 mph 44% 0.00 in 0.00 W/m2
20:54 79.0 °F 55.2 °F 29.92 in Calm     44% 0.00 in 0.00 W/m2
20:56 78.9 °F 55.2 °F 29.92 in Calm     44% 0.00 in 0.00 W/m2
21:01 78.7 °F 55.0 °F 29.92 in Calm     44% 0.00 in 0.00 W/m2
21:06 78.5 °F 54.8 °F 29.92 in Calm     44% 0.00 in 0.00 W/m2
21:11 78.4 °F 54.7 °F 29.93 in Calm     44% 0.00 in 0.00 W/m2
21:13 78.3 °F 54.6 °F 29.93 in Calm     44% 0.00 in 0.00 W/m2
21:18 78.1 °F 54.4 °F 29.93 in Calm     44% 0.00 in 0.00 W/m2
21:23 77.9 °F 54.3 °F 29.93 in Calm     44% 0.00 in 0.00 W/m2
21:28 77.8 °F 54.2 °F 29.93 in Calm     44% 0.00 in 0.00 W/m2
21:33 77.7 °F 54.1 °F 29.93 in Calm     44% 0.00 in 0.00 W/m2
21:38 77.6 °F 54.0 °F 29.93 in Calm     44% 0.00 in 0.00 W/m2
21:43 77.6 °F 54.0 °F 29.93 in Calm     44% 0.00 in 0.00 W/m2
21:48 77.5 °F 53.9 °F 29.93 in Calm     44% 0.00 in 0.00 W/m2
21:53 77.4 °F 53.2 °F 29.93 in Calm     43% 0.00 in 0.00 W/m2
21:58 77.3 °F 53.1 °F 29.93 in Calm     43% 0.00 in 0.00 W/m2
22:03 77.3 °F 53.1 °F 29.93 in Calm     43% 0.00 in 0.00 W/m2
22:08 77.2 °F 53.6 °F 29.93 in Calm     44% 0.00 in 0.00 W/m2
22:13 77.2 °F 53.6 °F 29.93 in Calm     44% 0.00 in 0.00 W/m2
22:18 77.1 °F 53.5 °F 29.93 in Calm     44% 0.00 in 0.00 W/m2
22:23 77.0 °F 53.4 °F 29.93 in Calm     44% 0.00 in 0.00 W/m2
22:28 77.0 °F 53.4 °F 29.93 in Calm     44% 0.00 in 0.00 W/m2
22:33 77.0 °F 53.4 °F 29.93 in Calm     44% 0.00 in 0.00 W/m2
22:38 76.8 °F 53.3 °F 29.93 in Calm     44% 0.00 in 0.00 W/m2
22:43 76.8 °F 53.9 °F 29.93 in West 1.0 mph 1.0 mph 45% 0.00 in 0.00 W/m2
22:48 76.7 °F 53.8 °F 29.93 in Calm     45% 0.00 in 0.00 W/m2
22:53 76.6 °F 54.3 °F 29.92 in Calm   1.0 mph 46% 0.00 in 0.00 W/m2
22:58 76.4 °F 54.7 °F 29.92 in Calm   1.0 mph 47% 0.00 in 0.00 W/m2
23:03 76.2 °F 55.1 °F 29.92 in Calm   1.0 mph 48% 0.00 in 0.00 W/m2
23:08 76.2 °F 55.7 °F 29.92 in Calm   1.0 mph 49% 0.00 in 0.00 W/m2
23:09 76.2 °F 55.7 °F 29.92 in Calm   1.0 mph 49% 0.00 in 0.00 W/m2
23:14 76.2 °F 55.7 °F 29.92 in Calm     49% 0.00 in 0.00 W/m2
23:19 76.1 °F 55.6 °F 29.92 in Calm   1.0 mph 49% 0.00 in 0.00 W/m2
23:24 76.1 °F 56.1 °F 29.92 in Calm   1.0 mph 50% 0.00 in 0.00 W/m2
23:29 76.0 °F 56.0 °F 29.92 in Calm     50% 0.00 in 0.00 W/m2
23:34 76.1 °F 56.1 °F 29.92 in Calm     50% 0.00 in 0.00 W/m2
23:39 76.0 °F 56.0 °F 29.92 in Calm     50% 0.00 in 0.00 W/m2
23:44 76.0 °F 56.0 °F 29.92 in Calm   3.0 mph 50% 0.00 in 0.00 W/m2
23:49 75.9 °F 56.0 °F 29.92 in Calm   1.0 mph 50% 0.00 in 0.00 W/m2
23:54 75.8 °F 56.4 °F 29.92 in Calm   3.0 mph 51% 0.00 in 0.00 W/m2
23:59 75.8 °F 56.4 °F 29.92 in Calm     51% 0.00 in 0.00 W/m2
Foresthill Weather
 WU-history PHP script courtesy of   Juneau County Weather.
powered by Cumulus v1.9.3 (1059)
Ambient Weather VWS v14.00
Top Contact Website Map Copyright © 2007 - 2018 Foresthillweather.com Never base important decisions on this or any weather information obtained from the Internet